Regional Weather Roundup
Issued by NWS

Home | Current Version | Previous Version | Graphics & Text | Print | Product List | Glossary On
Versions: 1 2 3 4 5 6 7 8 9 10 11 12 13 14 15 16 17 18 19 20 21 22 23 24 25 26 27 28 29 30 31 32 33 34 35 36 37 38 39 40 41 42 43 44 45 46 47 48 49 50
455
ASUS43 KFSD 230102
RWRSD

WEATHER ROUNDUP FOR SOUTH DAKOTA
NATIONAL WEATHER SERVICE SIOUX FALLS SD
700 PM CST MON JAN 22 2018

NOTE: "FAIR" INDICATES FEW OR NO CLOUDS BELOW 12,000 FEET WITH NO
SIGNIFICANT WEATHER AND/OR OBSTRUCTIONS TO VISIBILITY.


SDZ001>005-009-010-012>017-230200-
NORTHWEST AND NORTH CENTRAL SOUTH DAKOTA

CITY           SKY/WX    TMP DP  RH WIND       PRES   REMARKS
BUFFALO          N/A     27  17  66 W13       29.94S WCI  16
FAITH            N/A     28  22  78 NW9       29.99S WCI  19
MOBRIDGE       CLOUDY    25  21  85 N5        30.01S FOG     WCI  19
$$

SDZ012>016-024>037-041>051-057-063-072>074-230200-
SOUTHWEST AND SOUTH CENTRAL SOUTH DAKOTA

CITY           SKY/WX    TMP DP  RH WIND       PRES   REMARKS
RAPID CTY ARPT PTCLDY    30  18  60 N13       30.00S WCI  20
PIERRE         CLOUDY    22  22 100 N13       30.02F WCI  10
CUSTER         PTCLDY    27   6  41 N3        29.96R
ELLSWORTH AFB  PTCLDY    32  18  56 N12       30.00R WCI  23
PHILIP         CLEAR     28  25  88 CALM      30.02R
PINE RIDGE     PTCLDY    15  10  80 CALM      30.03R
SPEARFISH        N/A     30  18  59 W10       30.02S WCI  21
WINNER         MIX PCPN  25  22  88 N13       30.00R FOG     WCI  14
$$

SDZ004>011-016>023-039-040-230200-
NORTHEAST SOUTH DAKOTA

CITY           SKY/WX    TMP DP  RH WIND       PRES   REMARKS
ABERDEEN       CLOUDY    22  20  92 N16       30.03R WCI   8
WATERTOWN      CLOUDY    23  22  96 N22G29    29.92R WCI   8
BROOKINGS      CLOUDY    25  23  92 N21G28    29.89R WCI  11
SISSETON         N/A     25  22  88 N20G26    29.98R WCI  11
$$

SDZ017-020-022-023-036>040-048>070-230200-
SOUTHEAST SOUTH DAKOTA

CITY           SKY/WX    TMP DP  RH WIND       PRES   REMARKS
SIOUX FALLS    CLOUDY    28  24  85 N26G36    29.85R WCI  13
HURON          CLOUDY    24  22  91 N21       29.99R WCI   9
CHAMBERLAIN    CLOUDY    26  24  94 NW13G23   30.00S WCI  15
MITCHELL       CLOUDY    25  23  92 N29G36    29.98R WCI   8
YANKTON        LGT SNOW  26  23  88 NW24G33   29.89R FOG     WCI  11
$$

ABBREVIATIONS USED IN REMARKS
   TC - TEMPERATURE IN CELSIUS
  WCI - WIND CHILL INDEX
   HX - HEAT INDEX
  VSB - VISIBILITY





USA.gov is the U.S. government's official web portal to all federal, state and local government web resources and services.